NEXUS (FO-99) (43937 NORAD) Tracking and Keplerian Element Data

This shows tracking and keplerian element data for the satellite.

Feedback or suggestion? Click here.




ElementValue
Catalog43937
NameNEXUS (FO-99)
Epoch Orbit451
Epoch Day47.73091637
Epoch Year2019
RAAN109.1798
Inclination97.2948
Eccentricity0.0025579
Argument of Perigee138.8145
Mean Anonmoly11.6078
Mean Motion15.2325031
Decay Rate1.065E-05
L11 43937U 19003F 19047.73091637 .00001065 00000-0 47530-4 0 9991
L22 43937 97.2948 109.1798 0025579 138.8145 11.6078 15.23250310 4515

Live tracking and technical data element details for NEXUS (FO-99) (NORAD 43937). NEXUS (FO-99) can be tracked NOW for your location showing map with azimuth and elevation plus other details from your city location.

Track the satellite on the map from your city or location and see movement details for azimuth, elevation, latitude, longitude, range, height, and movement on the map or in text.







IsCatalogInMostPopularTable: catalog: 43937, numindb: 58
Update: records affected: 1



GetName: 43937 NEXUS (FO-99)

Hit Count: updated at: Thu, 21 Feb 2019 11:23:32 GMT